Weather History for Clinton, AR

Change the Weather History Date:

Monday, May 27, 2013

  Actual Average (KFLP) Record (KFLP)
Temperature  
Mean Temperature 72 °F -  
Max Temperature 82 °F 78 °F 89 °F (2006)
Min Temperature 62 °F 57 °F 46 °F (1999)
Cooling Degree Days 7    
Growing Degree Days 22 (Base 50)    
Moisture  
Dew Point 65 °F    
Average Humidity 77    
Maximum Humidity 100    
Minimum Humidity 54    
Precipitation  
Precipitation 0.00 in - - ()
Sea Level Pressure  
Sea Level Pressure 30.00 in    
Wind  
Wind Speed 3 mph (South)    
Max Wind Speed 14 mph    
Max Gust Speed 18 mph    
Visibility 7 miles    
Events      
Averages and records for this station are not official NWS values.
T = Trace of Precipitation, MM = Missing Value Source: NWS Daily Summary

Daily Weather History Graph

Daily Weather History Graph

Search for Another Location

Airport:

Trip Planner

Search our weather history database for the weather conditions in past years. The results will help you decide how hot, cold, wet, or windy it might be!

Date:

Astronomy

May. 27, 2013 Rise Set
Actual Time 5:57 AM CDT 8:17 PM CDT
Civil Twilight 5:28 AM CDT 8:46 PM CDT
Nautical Twilight 4:52 AM CDT 9:22 PM CDT
Astronomical Twilight 4:13 AM CDT 10:01 PM CDT
Moon 10:59 PM CDT (5/27) 8:33 AM CDT (5/27)
Length of Visible Light 15h 18m
Length of Day
14h 19m
Waning Gibbous, 91% of the Moon is Illuminated
May 27
Waning Gibbous
May 31
Last Quarter
Jun 8
New
Jun 16
First Quarter
Jun 23
Full

Hourly Weather History & Observations

Time (CDT) Temp. Heat Index Dew Point Humidity Pressure Visibility Wind Dir Wind Speed Gust Speed Precip Events Conditions
12:15 AM 64.4 °F - 62.6 °F 94% 30.07 in 5.0 mi Calm Calm - N/A   Clear
12:35 AM 62.6 °F - 62.6 °F 100% 30.07 in 5.0 mi Calm Calm - N/A   Clear
12:55 AM 62.6 °F - 62.6 °F 100% 30.07 in 5.0 mi Calm Calm - N/A   Clear
1:15 AM 62.6 °F - 62.6 °F 100% 30.06 in 4.0 mi Calm Calm - N/A   Clear
1:35 AM 62.6 °F - 62.6 °F 100% 30.07 in 4.0 mi Calm Calm - N/A   Clear
1:55 AM 62.6 °F - 62.6 °F 100% 30.06 in 4.0 mi Calm Calm - N/A   Clear
2:15 AM 62.6 °F - 62.6 °F 100% 30.06 in 4.0 mi Calm Calm - N/A   Scattered Clouds
2:35 AM 62.6 °F - 60.8 °F 94% 30.05 in 4.0 mi Calm Calm - N/A   Mostly Cloudy
2:55 AM 62.6 °F - 60.8 °F 94% 30.05 in 5.0 mi Calm Calm - N/A   Mostly Cloudy
3:15 AM 62.6 °F - 62.6 °F 100% 30.05 in 5.0 mi Calm Calm - N/A   Mostly Cloudy
3:35 AM 62.6 °F - 62.6 °F 100% 30.04 in 5.0 mi Calm Calm - N/A   Overcast
3:55 AM 62.6 °F - 62.6 °F 100% 30.05 in 5.0 mi Calm Calm - N/A   Overcast
4:15 AM 62.6 °F - 62.6 °F 100% 30.05 in 5.0 mi Calm Calm - N/A   Mostly Cloudy
4:35 AM 64.4 °F - 62.6 °F 94% 30.05 in 5.0 mi Calm Calm - N/A   Mostly Cloudy
4:55 AM 64.4 °F - 62.6 °F 94% 30.04 in 5.0 mi Calm Calm - N/A   Mostly Cloudy
5:15 AM 62.6 °F - 62.6 °F 100% 30.05 in 5.0 mi Calm Calm - N/A   Mostly Cloudy
5:35 AM 64.4 °F - 62.6 °F 94% 30.05 in 5.0 mi Calm Calm - N/A   Overcast
5:55 AM 64.4 °F - 62.6 °F 94% 30.05 in 5.0 mi Calm Calm - N/A   Overcast
6:15 AM 64.4 °F - 62.6 °F 94% 30.05 in 5.0 mi Calm Calm - N/A   Mostly Cloudy
6:35 AM 64.4 °F - 64.4 °F 100% 30.06 in 5.0 mi Calm Calm - N/A   Mostly Cloudy
6:55 AM 64.4 °F - 64.4 °F 100% 30.06 in 4.0 mi Calm Calm - N/A   Mostly Cloudy
7:15 AM 66.2 °F - 64.4 °F 94% 30.06 in 5.0 mi Calm Calm - N/A   Scattered Clouds
7:35 AM 66.2 °F - 64.4 °F 94% 30.05 in 5.0 mi Calm Calm - N/A   Mostly Cloudy
7:55 AM 68.0 °F - 66.2 °F 94% 30.04 in 5.0 mi Calm Calm - N/A   Partly Cloudy
8:15 AM 71.6 °F - 66.2 °F 83% 30.04 in 6.0 mi Calm Calm - N/A   Haze
8:35 AM 71.6 °F - 66.2 °F 83% 30.04 in 7.0 mi Calm Calm - N/A   Partly Cloudy
8:55 AM 73.4 °F - 66.2 °F 78% 30.04 in 7.0 mi SSE 3.5 mph - N/A   Partly Cloudy
9:15 AM 75.2 °F - 68.0 °F 78% 30.04 in 7.0 mi South 4.6 mph - N/A   Clear
9:35 AM 75.2 °F - 68.0 °F 78% 30.04 in 7.0 mi SSE 5.8 mph - N/A   Scattered Clouds
9:55 AM 77.0 °F - 68.0 °F 74% 30.03 in 7.0 mi SSE 10.4 mph - N/A   Scattered Clouds
10:15 AM 77.0 °F - 68.0 °F 74% 30.02 in 8.0 mi South 4.6 mph - N/A   Scattered Clouds
10:35 AM 78.8 °F - 68.0 °F 69% 30.02 in 7.0 mi SSW 10.4 mph 16.1 mph N/A   Scattered Clouds
10:55 AM 78.8 °F - 68.0 °F 69% 30.01 in 8.0 mi SSW 10.4 mph 16.1 mph N/A   Partly Cloudy
11:15 AM 80.6 °F 83.2 °F 68.0 °F 65% 30.01 in 7.0 mi South 10.4 mph 18.4 mph N/A   Scattered Clouds
11:35 AM 80.6 °F 83.2 °F 68.0 °F 65% 30.01 in 7.0 mi South 8.1 mph - N/A   Scattered Clouds
11:55 AM 80.6 °F 83.9 °F 69.8 °F 70% 30.00 in 7.0 mi South 9.2 mph 17.3 mph N/A   Scattered Clouds
12:15 PM 80.6 °F 83.9 °F 69.8 °F 70% 30.00 in 7.0 mi SSW 9.2 mph 16.1 mph N/A   Scattered Clouds
12:35 PM 82.4 °F 86.3 °F 69.8 °F 66% 30.01 in 8.0 mi SSW 10.4 mph 17.3 mph N/A   Scattered Clouds
12:55 PM 82.4 °F 85.4 °F 68.0 °F 62% 30.00 in 7.0 mi South 11.5 mph - N/A   Scattered Clouds
1:15 PM 82.4 °F 84.6 °F 66.2 °F 58% 30.00 in 7.0 mi South 13.8 mph 18.4 mph N/A   Partly Cloudy
1:35 PM 82.4 °F 84.6 °F 66.2 °F 58% 30.00 in 7.0 mi SSW 11.5 mph 16.1 mph N/A   Scattered Clouds
1:55 PM 82.4 °F 84.6 °F 66.2 °F 58% 30.00 in 7.0 mi SSW 12.7 mph 17.3 mph N/A   Scattered Clouds
2:15 PM 82.4 °F 84.6 °F 66.2 °F 58% 30.00 in 7.0 mi South 8.1 mph 17.3 mph N/A   Partly Cloudy
2:35 PM 82.4 °F 84.6 °F 66.2 °F 58% 29.99 in 7.0 mi SSW 10.4 mph - N/A   Partly Cloudy
2:55 PM 82.4 °F 84.6 °F 66.2 °F 58% 29.98 in 8.0 mi South 6.9 mph - N/A   Scattered Clouds
3:15 PM 82.4 °F 84.6 °F 66.2 °F 58% 29.97 in 8.0 mi South 6.9 mph - N/A   Scattered Clouds
3:35 PM 82.4 °F 84.6 °F 66.2 °F 58% 29.96 in 7.0 mi South 9.2 mph 17.3 mph N/A   Scattered Clouds
3:55 PM 82.4 °F 83.9 °F 64.4 °F 54% 29.95 in 7.0 mi South 9.2 mph 17.3 mph N/A   Partly Cloudy
4:15 PM 82.4 °F 84.6 °F 66.2 °F 58% 29.95 in 7.0 mi SSE 10.4 mph 16.1 mph N/A   Scattered Clouds
4:35 PM 82.4 °F 83.9 °F 64.4 °F 54% 29.94 in 8.0 mi SSE 4.6 mph - N/A   Partly Cloudy
4:55 PM 82.4 °F 84.6 °F 66.2 °F 58% 29.94 in 8.0 mi South 8.1 mph - N/A   Partly Cloudy
5:15 PM 82.4 °F 83.9 °F 64.4 °F 54% 29.94 in 7.0 mi South 12.7 mph 18.4 mph N/A   Scattered Clouds
5:35 PM 82.4 °F 83.9 °F 64.4 °F 54% 29.94 in 8.0 mi South 4.6 mph - N/A   Clear
5:55 PM 82.4 °F 83.9 °F 64.4 °F 54% 29.93 in 8.0 mi South 5.8 mph 16.1 mph N/A   Clear
6:15 PM 82.4 °F 84.6 °F 66.2 °F 58% 29.92 in 8.0 mi SSW 5.8 mph - N/A   Clear
6:35 PM 82.4 °F 84.6 °F 66.2 °F 58% 29.92 in 8.0 mi SSE 6.9 mph - N/A   Partly Cloudy
6:55 PM 80.6 °F 82.7 °F 66.2 °F 61% 29.92 in 7.0 mi SSE 6.9 mph - N/A   Clear
7:15 PM 80.6 °F 82.7 °F 66.2 °F 61% 29.92 in 8.0 mi SSE 5.8 mph - N/A   Clear
7:35 PM 80.6 °F 82.7 °F 66.2 °F 61% 29.92 in 8.0 mi SSE 3.5 mph - N/A   Partly Cloudy
7:55 PM 78.8 °F - 66.2 °F 65% 29.91 in 8.0 mi SSE 5.8 mph - N/A   Scattered Clouds
8:15 PM 78.8 °F - 66.2 °F 65% 29.91 in 9.0 mi South 3.5 mph - N/A   Partly Cloudy
8:35 PM 77.0 °F - 66.2 °F 69% 29.91 in 8.0 mi Calm Calm - N/A   Clear
8:55 PM 75.2 °F - 66.2 °F 73% 29.91 in 9.0 mi SSE 4.6 mph - N/A   Clear
9:15 PM 75.2 °F - 66.2 °F 73% 29.91 in 9.0 mi South 3.5 mph - N/A   Clear
9:35 PM 75.2 °F - 66.2 °F 73% 29.91 in 8.0 mi Calm Calm - N/A   Clear
9:55 PM 75.2 °F - 66.2 °F 73% 29.92 in 8.0 mi SSE 4.6 mph - N/A   Clear
10:15 PM 73.4 °F - 66.2 °F 78% 29.92 in 8.0 mi SSE 4.6 mph - N/A   Clear
10:35 PM 73.4 °F - 66.2 °F 78% 29.93 in 9.0 mi Calm Calm - N/A   Clear
10:55 PM 73.4 °F - 66.2 °F 78% 29.94 in 8.0 mi Calm Calm - N/A   Clear
11:15 PM 71.6 °F - 66.2 °F 83% 29.94 in 8.0 mi Calm Calm - N/A   Partly Cloudy
11:35 PM 69.8 °F - 68.0 °F 94% 29.94 in 7.0 mi Calm Calm - N/A   Clear
11:55 PM 71.6 °F - 66.2 °F 83% 29.92 in 8.0 mi Calm Calm - N/A   Clear